| time (UTC) | temp C | wind direction | speed KPH | gust KPH | rain 1hr cm | rain 24hr cm | rain mn cm | humidity % | barometer mb |
| 20260506185548 | 18 | 110 | 8.0 | 19.3 | 0.00 | 2.29 | 2.29 | 54 | 1008.9 |
| 20260506185346 | 18 | 204 | 6.4 | 19.3 | 0.00 | 2.29 | 2.29 | 54 | 1008.8 |
| 20260506185147 | 18 | 193 | 6.4 | 19.3 | 0.00 | 2.29 | 2.29 | 54 | 1008.8 |
| 20260506184949 | 18 | 223 | 8.0 | 19.3 | 0.00 | 2.29 | 2.29 | 55 | 1008.9 |
| 20260506184747 | 18 | 158 | 9.7 | 19.3 | 0.00 | 2.29 | 2.29 | 56 | 1008.8 |
| 20260506184550 | 18 | 233 | 11.3 | 19.3 | 0.00 | 2.29 | 2.29 | 56 | 1008.9 |
| 20260506184344 | 18 | 216 | 11.3 | 19.3 | 0.00 | 2.29 | 2.29 | 56 | 1008.8 |
| 20260506184142 | 18 | 162 | 11.3 | 19.3 | 0.00 | 2.29 | 2.29 | 56 | 1008.8 |
| 20260506183941 | 18 | 157 | 12.9 | 19.3 | 0.00 | 2.29 | 2.29 | 56 | 1008.8 |
| 20260506183742 | 18 | 233 | 9.7 | 19.3 | 0.00 | 2.29 | 2.29 | 57 | 1008.7 |
| 20260506183539 | 18 | 227 | 9.7 | 19.3 | 0.00 | 2.29 | 2.29 | 57 | 1008.7 |
| 20260506183339 | 18 | 213 | 9.7 | 19.3 | 0.00 | 2.29 | 2.29 | 57 | 1008.7 |
| 20260506183139 | 18 | 175 | 9.7 | 19.3 | 0.00 | 2.29 | 2.29 | 57 | 1008.7 |
| 20260506182939 | 18 | 189 | 6.4 | 14.5 | 0.00 | 2.29 | 2.29 | 57 | 1008.7 |
| 20260506182738 | 18 | 148 | 6.4 | 14.5 | 0.00 | 2.29 | 2.29 | 57 | 1008.6 |
| 20260506182543 | 18 | 158 | 6.4 | 14.5 | 0.00 | 2.29 | 2.29 | 57 | 1008.6 |
| 20260506182345 | 18 | 189 | 6.4 | 14.5 | 0.00 | 2.29 | 2.29 | 58 | 1008.6 |
| 20260506182139 | 18 | 175 | 4.8 | 11.3 | 0.00 | 2.29 | 2.29 | 57 | 1008.6 |
| 20260506181938 | 18 | 137 | 3.2 | 19.3 | 0.00 | 2.29 | 2.29 | 57 | 1008.6 |
| 20260506181738 | 18 | 165 | 6.4 | 19.3 | 0.00 | 2.29 | 2.29 | 57 | 1008.6 |
| 20260506181537 | 18 | 176 | 6.4 | 19.3 | 0.00 | 2.29 | 2.29 | 57 | 1008.6 |
| 20260506181338 | 18 | 209 | 4.8 | 19.3 | 0.00 | 2.29 | 2.29 | 58 | 1008.5 |
| 20260506181135 | 19 | 171 | 8.0 | 19.3 | 0.00 | 2.29 | 2.29 | 58 | 1008.4 |
| 20260506180934 | 19 | 230 | 8.0 | 16.1 | 0.00 | 2.29 | 2.29 | 58 | 1008.4 |
| 20260506180731 | 19 | 219 | 6.4 | 9.7 | 0.00 | 2.29 | 2.29 | 58 | 1008.4 |
| 20260506180529 | 19 | 193 | 4.8 | 9.7 | 0.00 | 2.29 | 2.29 | 59 | 1008.4 |
| 20260506180332 | 19 | 233 | 4.8 | 11.3 | 0.00 | 2.29 | 2.29 | 59 | 1008.5 |
| 20260506180130 | 19 | 213 | 3.2 | 11.3 | 0.00 | 2.29 | 2.29 | 59 | 1008.4 |
| 20260506175930 | 19 | 164 | 4.8 | 11.3 | 0.00 | 2.29 | 2.29 | 59 | 1008.5 |
| 20260506175729 | 19 | 188 | 3.2 | 14.5 | 0.00 | 2.29 | 2.29 | 59 | 1008.4 |
| 20260506175530 | 19 | 155 | 3.2 | 14.5 | 0.00 | 2.29 | 2.29 | 59 | 1008.4 |
| 20260506175329 | 19 | 165 | 3.2 | 14.5 | 0.00 | 2.29 | 2.29 | 60 | 1008.4 |
| 20260506175132 | 19 | 147 | 3.2 | 14.5 | 0.00 | 2.29 | 2.29 | 60 | 1008.3 |
| 20260506174929 | 19 | 142 | 6.4 | 14.5 | 0.00 | 2.29 | 2.29 | 60 | 1008.4 |
| 20260506174729 | 19 | 202 | 3.2 | 9.7 | 0.00 | 2.29 | 2.29 | 59 | 1008.4 |
| 20260506174529 | 19 | 196 | 3.2 | 9.7 | 0.00 | 2.29 | 2.29 | 59 | 1008.4 |
| 20260506174329 | 19 | 185 | 3.2 | 9.7 | 0.00 | 2.29 | 2.29 | 60 | 1008.4 |
| 20260506174125 | 19 | 202 | 4.8 | 16.1 | 0.00 | 2.29 | 2.29 | 60 | 1008.3 |
| 20260506174001 | 19 | 186 | 6.4 | 16.1 | 0.00 | 2.29 | 2.29 | 60 | 1008.3 |
| 20260506173900 | 19 | 193 | 4.8 | 16.1 | 0.00 | 2.29 | 2.29 | 61 | 1008.3 |
| 20260506173753 | 19 | 195 | 3.2 | 16.1 | 0.00 | 2.29 | 2.29 | 60 | 1008.2 |
| 20260506164716 | 20 | 169 | 3.2 | 17.7 | 0.00 | 2.29 | 2.29 | 68 | 1008.0 |
| 20260506164519 | 20 | 110 | 4.8 | 17.7 | 0.00 | 2.29 | 2.29 | 67 | 1008.0 |
| 20260506164303 | 20 | 197 | 4.8 | 17.7 | 0.00 | 2.29 | 2.29 | 67 | 1007.9 |
| 20260506164107 | 20 | 213 | 6.4 | 17.7 | 0.00 | 2.29 | 2.29 | 66 | 1007.9 |
| 20260506163903 | 20 | 145 | 8.0 | 17.7 | 0.00 | 2.29 | 2.29 | 67 | 1007.9 |
| 20260506163705 | 20 | 192 | 4.8 | 11.3 | 0.00 | 2.29 | 2.29 | 69 | 1007.9 |
| 20260506163501 | 20 | 224 | 4.8 | 17.7 | 0.00 | 2.29 | 2.29 | 68 | 1007.9 |
| 20260506163302 | 20 | 207 | 8.0 | 17.7 | 0.00 | 2.29 | 2.29 | 68 | 1007.9 |
| 20260506163102 | 20 | 206 | 6.4 | 17.7 | 0.00 | 2.29 | 2.29 | 66 | 1007.9 |
| 20260506162901 | 20 | 185 | 8.0 | 17.7 | 0.00 | 2.29 | 2.29 | 66 | 1007.9 |
| 20260506162701 | 20 | 189 | 8.0 | 17.7 | 0.00 | 2.29 | 2.29 | 65 | 1007.8 |
| 20260506162511 | 20 | 179 | 8.0 | 16.1 | 0.00 | 2.29 | 2.29 | 66 | 1007.9 |
| 20260506162301 | 20 | 186 | 8.0 | 16.1 | 0.00 | 2.29 | 2.29 | 67 | 1007.9 |
| 20260506162104 | 20 | 197 | 8.0 | 14.5 | 0.00 | 2.29 | 2.29 | 67 | 1007.8 |
| 20260506161900 | 20 | 227 | 6.4 | 14.5 | 0.00 | 2.29 | 2.29 | 67 | 1007.9 |
| 20260506161706 | 20 | 204 | 6.4 | 11.3 | 0.00 | 2.29 | 2.29 | 67 | 1007.9 |
| 20260506161500 | 20 | 193 | 6.4 | 11.3 | 0.00 | 2.29 | 2.29 | 67 | 1007.9 |
| 20260506161306 | 20 | 227 | 6.4 | 11.3 | 0.00 | 2.29 | 2.29 | 67 | 1007.9 |
| 20260506161046 | 20 | 206 | 4.8 | 11.3 | 0.00 | 2.29 | 2.29 | 66 | 1007.9 |
| 20260506160846 | 20 | 199 | 6.4 | 11.3 | 0.00 | 2.29 | 2.29 | 66 | 1007.9 |
| 20260506160647 | 20 | 192 | 8.0 | 11.3 | 0.00 | 2.29 | 2.29 | 66 | 1007.8 |
| 20260506160443 | 20 | 213 | 6.4 | 14.5 | 0.00 | 2.29 | 2.29 | 66 | 1007.9 |
| 20260506160246 | 20 | 199 | 6.4 | 14.5 | 0.00 | 2.29 | 2.29 | 67 | 1007.8 |
| 20260506160044 | 20 | 224 | 6.4 | 14.5 | 0.00 | 2.29 | 2.29 | 67 | 1007.8 |
| 20260506155840 | 20 | 190 | 6.4 | 14.5 | 0.00 | 2.29 | 2.29 | 67 | 1007.9 |
| 20260506155640 | 20 | 210 | 6.4 | 14.5 | 0.00 | 2.29 | 2.29 | 67 | 1007.8 |
| 20260506155437 | 20 | 203 | 4.8 | 17.7 | 0.00 | 2.29 | 2.29 | 68 | 1007.8 |
| 20260506155236 | 20 | 202 | 4.8 | 17.7 | 0.00 | 2.29 | 2.29 | 68 | 1007.7 |
| 20260506155033 | 20 | 186 | 4.8 | 17.7 | 0.00 | 2.29 | 2.29 | 69 | 1007.6 |
| 20260506154833 | 20 | 216 | 6.4 | 17.7 | 0.00 | 2.29 | 2.29 | 69 | 1007.7 |
| 20260506154632 | 20 | 190 | 8.0 | 17.7 | 0.00 | 2.29 | 2.29 | 69 | 1007.7 |
| 20260506154433 | 20 | 214 | 9.7 | 17.7 | 0.00 | 2.29 | 2.29 | 69 | 1007.7 |
| 20260506154235 | 20 | 183 | 6.4 | 16.1 | 0.00 | 2.29 | 2.29 | 69 | 1007.6 |
| 20260506154036 | 20 | 203 | 6.4 | 16.1 | 0.00 | 2.29 | 2.29 | 69 | 1007.6 |
| 20260506153831 | 19 | 197 | 6.4 | 16.1 | 0.00 | 2.29 | 2.29 | 70 | 1007.7 |
| 20260506153630 | 19 | 182 | 6.4 | 16.1 | 0.00 | 2.29 | 2.29 | 70 | 1007.7 |
| 20260506153430 | 19 | 244 | 6.4 | 16.1 | 0.00 | 2.29 | 2.29 | 70 | 1007.6 |
| 20260506153223 | 19 | 131 | 4.8 | 11.3 | 0.00 | 2.29 | 2.29 | 71 | 1007.7 |
| 20260506153022 | 19 | 221 | 6.4 | 11.3 | 0.00 | 2.29 | 2.29 | 71 | 1007.7 |
| 20260506152819 | 19 | 199 | 6.4 | 9.7 | 0.00 | 2.29 | 2.29 | 72 | 1007.8 |
| 20260506152616 | 19 | 186 | 6.4 | 9.7 | 0.00 | 2.29 | 2.29 | 72 | 1007.8 |
| 20260506152418 | 19 | 195 | 6.4 | 9.7 | 0.00 | 2.29 | 2.29 | 72 | 1007.8 |
| 20260506152214 | 19 | 195 | 3.2 | 9.7 | 0.00 | 2.29 | 2.29 | 73 | 1007.8 |
| 20260506152020 | 19 | 193 | 3.2 | 9.7 | 0.00 | 2.29 | 2.29 | 72 | 1007.9 |
| 20260506151813 | 19 | 190 | 3.2 | 9.7 | 0.00 | 2.29 | 2.29 | 72 | 1007.9 |
| 20260506151613 | 19 | 182 | 3.2 | 9.7 | 0.00 | 2.29 | 2.29 | 72 | 1007.9 |
| 20260506151414 | 19 | 179 | 6.4 | 9.7 | 0.00 | 2.29 | 2.29 | 72 | 1007.9 |
| 20260506151210 | 19 | 212 | 3.2 | 9.7 | 0.00 | 2.29 | 2.29 | 73 | 1008.0 |
| 20260506151023 | 19 | 207 | 3.2 | 9.7 | 0.00 | 2.29 | 2.29 | 73 | 1008.1 |
| 20260506150815 | 19 | 192 | 3.2 | 6.4 | 0.00 | 2.29 | 2.29 | 73 | 1007.9 |
| 20260506150610 | 19 | 138 | 1.6 | 6.4 | 0.00 | 2.29 | 2.29 | 73 | 1007.9 |
| 20260506150411 | 19 | 131 | 1.6 | 8.0 | 0.00 | 2.29 | 2.29 | 73 | 1007.9 |
| 20260506150211 | 19 | 141 | 4.8 | 8.0 | 0.00 | 2.29 | 2.29 | 73 | 1007.9 |
| 20260506150030 | 19 | 204 | 1.6 | 9.7 | 0.00 | 2.29 | 2.29 | 74 | 1007.8 |
| 20260506145810 | 19 | 157 | 1.6 | 14.5 | 0.00 | 2.29 | 2.29 | 74 | 1007.8 |
| 20260506145603 | 19 | 154 | 4.8 | 14.5 | 0.00 | 2.29 | 2.29 | 74 | 1007.6 |
| 20260506145407 | 19 | 159 | 3.2 | 14.5 | 0.00 | 2.29 | 2.29 | 75 | 1007.8 |
| 20260506145205 | 19 | 168 | 6.4 | 20.9 | 0.00 | 2.29 | 2.29 | 74 | 1007.7 |
| 20260506145014 | 19 | 135 | 3.2 | 20.9 | 0.00 | 2.29 | 2.29 | 74 | 1007.7 |
| 20260506144808 | 19 | 114 | 4.8 | 20.9 | 0.00 | 2.29 | 2.29 | 74 | 1007.9 |
| 20260506144605 | 19 | 157 | 3.2 | 20.9 | 0.00 | 2.29 | 2.29 | 74 | 1008.0 |
| 20260506144410 | 19 | 203 | 8.0 | 20.9 | 0.00 | 2.29 | 2.29 | 74 | 1007.9 |
| 20260506144208 | 19 | 195 | 3.2 | 6.4 | 0.00 | 2.29 | 2.29 | 74 | 1008.0 |
| 20260506144006 | 19 | 204 | 3.2 | 8.0 | 0.00 | 2.29 | 2.29 | 74 | 1008.0 |
| 20260506143806 | 19 | 182 | 1.6 | 8.0 | 0.00 | 2.29 | 2.29 | 74 | 1008.0 |
| 20260506143602 | 19 | 162 | 3.2 | 11.3 | 0.00 | 2.29 | 2.29 | 74 | 1008.0 |
| 20260506143401 | 19 | 189 | 1.6 | 16.1 | 0.00 | 2.29 | 2.29 | 74 | 1008.0 |
| 20260506143203 | 19 | 188 | 4.8 | 22.5 | 0.00 | 2.29 | 2.29 | 74 | 1008.0 |
| 20260506143015 | 19 | 142 | 3.2 | 22.5 | 0.00 | 2.29 | 2.29 | 74 | 1007.9 |
| 20260506142805 | 19 | 203 | 6.4 | 22.5 | 0.00 | 2.29 | 2.29 | 74 | 1007.9 |
| 20260506142601 | 19 | 202 | 6.4 | 22.5 | 0.00 | 2.29 | 2.29 | 74 | 1007.8 |
| 20260506142401 | 19 | 142 | 9.7 | 22.5 | 0.00 | 2.29 | 2.29 | 73 | 1007.9 |
| 20260506142210 | 19 | 151 | 8.0 | 19.3 | 0.00 | 2.29 | 2.29 | 74 | 1007.9 |
| 20260506142014 | 19 | 213 | 8.0 | 19.3 | 0.00 | 2.29 | 2.29 | 74 | 1007.9 |
| 20260506141800 | 19 | 192 | 9.7 | 19.3 | 0.00 | 2.29 | 2.29 | 75 | 1007.7 |
| 20260506141600 | 19 | 226 | 6.4 | 17.7 | 0.00 | 2.29 | 2.29 | 76 | 1007.8 |
| 20260506141359 | 19 | 195 | 6.4 | 17.7 | 0.00 | 2.29 | 2.29 | 75 | 1007.8 |
| 20260506141206 | 19 | 155 | 8.0 | 16.1 | 0.00 | 2.29 | 2.29 | 75 | 1007.8 |
| 20260506140959 | 19 | 199 | 9.7 | 19.3 | 0.00 | 2.29 | 2.29 | 76 | 1007.9 |
| 20260506140801 | 19 | 175 | 6.4 | 19.3 | 0.00 | 2.29 | 2.29 | 76 | 1007.9 |
| 20260506140558 | 19 | 209 | 6.4 | 19.3 | 0.00 | 2.29 | 2.29 | 75 | 1007.9 |
| 20260506140357 | 19 | 200 | 9.7 | 19.3 | 0.00 | 2.29 | 2.29 | 75 | 1008.0 |
| 20260506140206 | 19 | 195 | 11.3 | 19.3 | 0.00 | 2.29 | 2.29 | 74 | 1008.0 |
| 20260506135959 | 19 | 197 | 8.0 | 19.3 | 0.00 | 2.29 | 2.29 | 74 | 1008.0 |
| 20260506135801 | 19 | 183 | 8.0 | 19.3 | 0.00 | 2.29 | 2.29 | 74 | 1008.3 |
| 20260506135557 | 19 | 230 | 6.4 | 19.3 | 0.00 | 2.29 | 2.29 | 73 | 1008.3 |
| 20260506135359 | 19 | 200 | 11.3 | 19.3 | 0.00 | 2.29 | 2.29 | 72 | 1008.4 |
| 20260506135159 | 19 | 133 | 8.0 | 19.3 | 0.00 | 2.29 | 2.29 | 73 | 1008.4 |
| 20260506134954 | 19 | 227 | 8.0 | 17.7 | 0.00 | 2.29 | 2.29 | 73 | 1008.4 |
| 20260506134751 | 19 | 197 | 6.4 | 24.1 | 0.00 | 2.29 | 2.29 | 73 | 1008.4 |
| 20260506134548 | 19 | 171 | 6.4 | 27.4 | 0.00 | 2.29 | 2.29 | 73 | 1008.4 |
| 20260506134350 | 19 | 206 | 8.0 | 27.4 | 0.00 | 2.29 | 2.29 | 72 | 1008.3 |
| 20260506134159 | 19 | 227 | 9.7 | 27.4 | 0.00 | 2.29 | 2.29 | 72 | 1008.3 |
| 20260506133947 | 19 | 228 | 11.3 | 27.4 | 0.00 | 2.29 | 2.29 | 73 | 1008.5 |
| 20260506133748 | 19 | 171 | 11.3 | 27.4 | 0.00 | 2.29 | 2.29 | 75 | 1008.4 |
| 20260506133546 | 18 | 200 | 12.9 | 22.5 | 0.00 | 2.29 | 2.29 | 76 | 1008.4 |
| 20260506133346 | 18 | 176 | 9.7 | 20.9 | 0.00 | 2.29 | 2.29 | 77 | 1008.4 |
| 20260506133146 | 18 | 197 | 9.7 | 22.5 | 0.00 | 2.29 | 2.29 | 77 | 1008.5 |
| 20260506132947 | 18 | 168 | 8.0 | 22.5 | 0.00 | 2.29 | 2.29 | 78 | 1008.5 |
| 20260506132744 | 18 | 200 | 9.7 | 22.5 | 0.00 | 2.29 | 2.29 | 78 | 1008.6 |
| 20260506132544 | 18 | 180 | 9.7 | 22.5 | 0.00 | 2.29 | 2.29 | 78 | 1008.7 |
| 20260506132343 | 18 | 162 | 9.7 | 22.5 | 0.00 | 2.29 | 2.29 | 78 | 1008.7 |
| 20260506132143 | 18 | 166 | 3.2 | 14.5 | 0.00 | 2.29 | 2.29 | 80 | 1008.7 |
| 20260506131940 | 18 | 192 | 4.8 | 14.5 | 0.00 | 2.29 | 2.29 | 80 | 1008.8 |
| 20260506131740 | 18 | 135 | 4.8 | 11.3 | 0.00 | 2.29 | 2.29 | 81 | 1008.6 |
| 20260506131539 | 18 | 254 | 6.4 | 11.3 | 0.00 | 2.29 | 2.29 | 82 | 1008.7 |
| 20260506131338 | 18 | 86 | 3.2 | 14.5 | 0.00 | 2.29 | 2.29 | 82 | 1008.6 |
| 20260506131145 | 18 | 118 | 4.8 | 16.1 | 0.00 | 2.29 | 2.29 | 83 | 1008.7 |
| 20260506130937 | 18 | 231 | 3.2 | 16.1 | 0.03 | 2.29 | 2.29 | 84 | 1008.7 |
| 20260506130743 | 18 | 216 | 3.2 | 16.1 | 0.03 | 2.29 | 2.29 | 84 | 1008.9 |
| 20260506130539 | 18 | 193 | 6.4 | 16.1 | 0.03 | 2.29 | 2.29 | 84 | 1008.8 |
| 20260506130332 | 18 | 224 | 6.4 | 20.9 | 0.03 | 2.29 | 2.29 | 84 | 1009.1 |
| 20260506130136 | 18 | 199 | 4.8 | 20.9 | 0.03 | 2.29 | 2.29 | 84 | 1009.0 |
| 20260506125930 | 18 | 179 | 6.4 | 20.9 | 0.03 | 2.26 | 2.29 | 85 | 1009.1 |
| 20260506125732 | 18 | 230 | 3.2 | 20.9 | 0.03 | 2.26 | 2.29 | 85 | 1009.1 |
| 20260506125528 | 18 | 180 | 6.4 | 20.9 | 0.03 | 2.26 | 2.29 | 85 | 1008.9 |
| 20260506125132 | 18 | 192 | 8.0 | 16.1 | 0.03 | 2.26 | 2.29 | 85 | 1009.0 |
| 20260506124928 | 18 | 175 | 4.8 | 16.1 | 0.03 | 2.26 | 2.29 | 86 | 1009.0 |
| 20260506124725 | 18 | 227 | 6.4 | 16.1 | 0.03 | 2.26 | 2.29 | 87 | 1009.0 |
| 20260506124528 | 18 | 206 | 3.2 | 8.0 | 0.03 | 2.26 | 2.29 | 87 | 1009.1 |
| 20260506124323 | 18 | 207 | 3.2 | 11.3 | 0.05 | 2.26 | 2.29 | 87 | 1008.9 |
| 20260506124136 | 18 | 172 | 3.2 | 11.3 | 0.05 | 2.26 | 2.29 | 87 | 1008.9 |
| 20260506123921 | 18 | 161 | 3.2 | 16.1 | 0.05 | 2.26 | 2.29 | 86 | 1008.9 |
| 20260506123720 | 18 | 212 | 3.2 | 16.1 | 0.05 | 2.26 | 2.29 | 86 | 1009.0 |
| 20260506123521 | 18 | 203 | 6.4 | 16.1 | 0.05 | 2.26 | 2.29 | 86 | 1009.0 |
| 20260506123319 | 18 | 217 | 3.2 | 16.1 | 0.05 | 2.26 | 2.29 | 86 | 1009.2 |
| 20260506123123 | 18 | 217 | 8.0 | 16.1 | 0.05 | 2.26 | 2.29 | 86 | 1009.1 |
| 20260506122916 | 18 | 193 | 8.0 | 16.1 | 0.05 | 2.26 | 2.29 | 87 | 1009.1 |
| 20260506122713 | 18 | 182 | 3.2 | 9.7 | 0.05 | 2.26 | 2.29 | 88 | 1008.9 |
| 20260506122519 | 18 | 234 | 3.2 | 9.7 | 0.05 | 2.26 | 2.29 | 88 | 1008.9 |
| 20260506122312 | 18 | 195 | 3.2 | 8.0 | 0.05 | 2.26 | 2.29 | 88 | 1008.8 |
| 20260506122113 | 18 | 193 | 3.2 | 8.0 | 0.05 | 2.26 | 2.29 | 89 | 1008.8 |
| 20260506121911 | 18 | 127 | 1.6 | 8.0 | 0.05 | 2.26 | 2.29 | 89 | 1008.7 |
| 20260506121712 | 18 | 110 | 0.0 | 8.0 | 0.05 | 2.26 | 2.29 | 89 | 1008.7 |
| 20260506121521 | 18 | 103 | 1.6 | 8.0 | 0.05 | 2.26 | 2.29 | 89 | 1008.8 |
| 20260506121312 | 18 | 168 | 3.2 | 6.4 | 0.05 | 2.26 | 2.29 | 89 | 1008.9 |
| 20260506121133 | 18 | 282 | 1.6 | 8.0 | 0.05 | 2.26 | 2.29 | 89 | 1008.8 |
| 20260506120911 | 18 | 282 | 1.6 | 8.0 | 0.03 | 2.26 | 2.26 | 89 | 1008.9 |
| 20260506120712 | 18 | 283 | 1.6 | 14.5 | 0.03 | 2.26 | 2.26 | 89 | 1009.1 |
| 20260506120520 | 18 | 283 | 0.0 | 16.1 | 0.03 | 2.26 | 2.26 | 89 | 1009.1 |
| 20260506120308 | 18 | 283 | 3.2 | 16.1 | 0.03 | 2.26 | 2.26 | 88 | 1009.0 |
| 20260506120112 | 18 | 223 | 1.6 | 16.1 | 0.03 | 2.26 | 2.26 | 88 | 1009.1 |
| 20260506115907 | 18 | 298 | 8.0 | 16.1 | 0.03 | 2.24 | 2.26 | 88 | 1009.0 |
| 20260506115708 | 18 | 282 | 9.7 | 19.3 | 0.03 | 2.24 | 2.26 | 88 | 1009.0 |
| 20260506115515 | 18 | 282 | 4.8 | 20.9 | 0.03 | 2.24 | 2.26 | 88 | 1009.1 |
| 20260506115308 | 18 | 195 | 4.8 | 25.7 | 0.03 | 2.24 | 2.26 | 88 | 1009.0 |
| 20260506115113 | 18 | 241 | 8.0 | 25.7 | 0.03 | 2.24 | 2.26 | 87 | 1009.1 |
| 20260506114912 | 18 | 285 | 11.3 | 25.7 | 0.03 | 2.24 | 2.26 | 86 | 1008.9 |
| 20260506114711 | 18 | 286 | 14.5 | 25.7 | 0.03 | 2.24 | 2.26 | 84 | 1009.0 |
| 20260506114519 | 18 | 213 | 14.5 | 25.7 | 0.03 | 2.24 | 2.26 | 80 | 1009.0 |
| 20260506114311 | 19 | 231 | 12.9 | 25.7 | 0.00 | 2.24 | 2.24 | 79 | 1008.9 |
| 20260506114126 | 19 | 180 | 11.3 | 25.7 | 0.00 | 2.24 | 2.24 | 78 | 1008.8 |
| 20260506113911 | 19 | 189 | 14.5 | 25.7 | 0.00 | 2.24 | 2.24 | 77 | 1008.8 |
| 20260506113713 | 19 | 220 | 11.3 | 24.1 | 0.00 | 2.24 | 2.24 | 77 | 1008.7 |
| 20260506113519 | 19 | 233 | 12.9 | 24.1 | 0.00 | 2.24 | 2.24 | 76 | 1008.7 |
| 20260506113319 | 19 | 221 | 14.5 | 24.1 | 0.00 | 2.24 | 2.24 | 75 | 1008.7 |
| 20260506113116 | 19 | 252 | 12.9 | 20.9 | 0.00 | 2.24 | 2.24 | 76 | 1008.7 |
| 20260506112909 | 19 | 203 | 11.3 | 19.3 | 0.00 | 2.24 | 2.24 | 76 | 1008.7 |
| 20260506112712 | 19 | 216 | 11.3 | 19.3 | 0.00 | 2.24 | 2.24 | 76 | 1008.6 |
| 20260506112520 | 19 | 192 | 6.4 | 19.3 | 0.00 | 2.24 | 2.24 | 76 | 1008.6 |
| 20260506112308 | 19 | 235 | 8.0 | 19.3 | 0.00 | 2.24 | 2.24 | 76 | 1008.8 |
| 20260506112111 | 19 | 196 | 9.7 | 19.3 | 0.00 | 2.24 | 2.24 | 76 | 1008.7 |
| 20260506111909 | 20 | 247 | 8.0 | 17.7 | 0.00 | 2.24 | 2.24 | 76 | 1008.7 |
| 20260506111708 | 20 | 195 | 8.0 | 20.9 | 0.00 | 2.24 | 2.24 | 75 | 1008.6 |
| 20260506111516 | 20 | 206 | 6.4 | 20.9 | 0.00 | 2.24 | 2.24 | 75 | 1008.7 |
| 20260506111310 | 20 | 186 | 4.8 | 20.9 | 0.00 | 2.24 | 2.24 | 75 | 1008.7 |
| 20260506111122 | 19 | 193 | 6.4 | 20.9 | 0.00 | 2.24 | 2.24 | 75 | 1008.5 |
| 20260506110908 | 19 | 192 | 11.3 | 20.9 | 0.00 | 2.24 | 2.24 | 74 | 1008.5 |
| 20260506110708 | 20 | 165 | 6.4 | 20.9 | 0.00 | 2.24 | 2.24 | 75 | 1008.6 |
| 20260506110517 | 19 | 159 | 6.4 | 22.5 | 0.00 | 2.24 | 2.24 | 75 | 1008.6 |
| 20260506110309 | 19 | 152 | 9.7 | 22.5 | 0.00 | 2.24 | 2.24 | 75 | 1008.6 |
| 20260506110113 | 20 | 149 | 6.4 | 22.5 | 0.00 | 2.24 | 2.24 | 75 | 1008.6 |
| 20260506105908 | 19 | 278 | 4.8 | 22.5 | 0.00 | 2.24 | 2.24 | 75 | 1008.5 |
| 20260506105709 | 19 | 250 | 8.0 | 22.5 | 0.00 | 2.24 | 2.24 | 76 | 1008.6 |
| 20260506105517 | 19 | 266 | 6.4 | 19.3 | 0.00 | 2.24 | 2.24 | 76 | 1008.6 |
| 20260506105313 | 19 | 124 | 9.7 | 25.7 | 0.00 | 2.24 | 2.24 | 76 | 1008.7 |
| 20260506105112 | 19 | 125 | 8.0 | 25.7 | 0.00 | 2.24 | 2.24 | 76 | 1008.7 |
| 20260506104909 | 19 | 155 | 9.7 | 25.7 | 0.00 | 2.24 | 2.24 | 76 | 1008.7 |
| 20260506104710 | 19 | 252 | 6.4 | 25.7 | 0.00 | 2.24 | 2.24 | 77 | 1008.7 |
| 20260506104524 | 19 | 196 | 12.9 | 25.7 | 0.00 | 2.24 | 2.24 | 77 | 1008.9 |
| 20260506104310 | 19 | 217 | 14.5 | 25.7 | 0.00 | 2.24 | 2.24 | 78 | 1008.9 |
| 20260506104111 | 19 | 226 | 11.3 | 19.3 | 0.00 | 2.24 | 2.24 | 82 | 1008.8 |
| 20260506103910 | 19 | 183 | 4.8 | 9.7 | 0.00 | 2.24 | 2.24 | 85 | 1008.8 |
| 20260506103710 | 18 | 155 | 1.6 | 9.7 | 0.00 | 2.24 | 2.24 | 86 | 1008.9 |
| 20260506103528 | 18 | 124 | 1.6 | 9.7 | 0.00 | 2.24 | 2.24 | 86 | 1008.8 |
| 20260506103310 | 18 | 125 | 4.8 | 9.7 | 0.00 | 2.24 | 2.24 | 86 | 1008.8 |
| 20260506103112 | 18 | 124 | 3.2 | 9.7 | 0.00 | 2.24 | 2.24 | 86 | 1008.8 |
| 20260506102909 | 18 | 59 | 3.2 | 8.0 | 0.00 | 2.24 | 2.24 | 87 | 1008.8 |
| 20260506102710 | 18 | 66 | 1.6 | 8.0 | 0.00 | 2.24 | 2.24 | 88 | 1008.7 |
| 20260506102517 | 18 | 66 | 0.0 | 14.5 | 0.00 | 2.24 | 2.24 | 88 | 1008.8 |
| 20260506102309 | 18 | 66 | 1.6 | 14.5 | 0.00 | 2.24 | 2.24 | 88 | 1008.8 |
| 20260506102112 | 18 | 63 | 3.2 | 14.5 | 0.00 | 2.24 | 2.24 | 88 | 1009.0 |
| 20260506101911 | 18 | 110 | 4.8 | 14.5 | 0.00 | 2.24 | 2.24 | 88 | 1008.9 |
| 20260506101711 | 18 | 134 | 8.0 | 19.3 | 0.00 | 2.24 | 2.24 | 88 | 1008.9 |
| 20260506101523 | 18 | 118 | 8.0 | 19.3 | 0.00 | 2.24 | 2.24 | 88 | 1008.8 |
| 20260506101317 | 18 | 120 | 4.8 | 19.3 | 0.00 | 2.24 | 2.24 | 89 | 1009.0 |
| 20260506101111 | 18 | 176 | 8.0 | 19.3 | 0.00 | 2.24 | 2.24 | 89 | 1008.9 |
| 20260506100910 | 18 | 51 | 9.7 | 19.3 | 0.00 | 2.24 | 2.24 | 89 | 1008.9 |
| 20260506100709 | 18 | 96 | 6.4 | 16.1 | 0.00 | 2.24 | 2.24 | 90 | 1009.0 |
| 20260506100518 | 18 | 94 | 6.4 | 14.5 | 0.00 | 2.24 | 2.24 | 90 | 1008.9 |
| 20260506100312 | 18 | 135 | 8.0 | 14.5 | 0.00 | 2.24 | 2.24 | 90 | 1009.0 |
| 20260506100113 | 17 | 103 | 3.2 | 11.3 | 0.00 | 2.26 | 2.24 | 92 | 1009.0 |
| 20260506095911 | 17 | 131 | 4.8 | 16.1 | 0.00 | 2.26 | 2.24 | 90 | 1009.0 |
| 20260506095713 | 17 | 133 | 3.2 | 16.1 | 0.00 | 2.29 | 2.24 | 91 | 1009.0 |
| 20260506095528 | 17 | 128 | 4.8 | 16.1 | 0.00 | 2.31 | 2.24 | 91 | 1009.0 |
| 20260506095310 | 17 | 138 | 4.8 | 20.9 | 0.00 | 2.31 | 2.24 | 91 | 1009.1 |
| 20260506095108 | 17 | 118 | 6.4 | 20.9 | 0.00 | 2.31 | 2.24 | 91 | 1009.1 |
| 20260506094910 | 17 | 80 | 4.8 | 20.9 | 0.00 | 2.34 | 2.24 | 91 | 1009.1 |
| 20260506094709 | 17 | 121 | 6.4 | 20.9 | 0.00 | 2.34 | 2.24 | 91 | 1009.0 |
| 20260506094522 | 17 | 87 | 8.0 | 20.9 | 0.00 | 2.36 | 2.24 | 91 | 1009.1 |
| 20260506094308 | 17 | 103 | 8.0 | 16.1 | 0.00 | 2.36 | 2.24 | 91 | 1009.0 |
| 20260506094109 | 16 | 127 | 8.0 | 16.1 | 0.00 | 2.36 | 2.24 | 91 | 1008.9 |
| 20260506093908 | 16 | 106 | 3.2 | 14.5 | 0.00 | 2.39 | 2.24 | 91 | 1009.0 |
| 20260506093708 | 16 | 106 | 4.8 | 14.5 | 0.03 | 2.39 | 2.24 | 91 | 1009.0 |
| 20260506093519 | 16 | 94 | 8.0 | 14.5 | 0.03 | 2.39 | 2.24 | 91 | 1008.9 |
| 20260506093312 | 16 | 117 | 6.4 | 11.3 | 0.03 | 2.39 | 2.24 | 91 | 1008.9 |
| 20260506093110 | 16 | 39 | 4.8 | 11.3 | 0.05 | 2.39 | 2.24 | 91 | 1008.9 |
| 20260506092907 | 16 | 63 | 4.8 | 9.7 | 0.05 | 2.39 | 2.24 | 91 | 1009.0 |
| 20260506092708 | 16 | 114 | 3.2 | 9.7 | 0.05 | 2.39 | 2.24 | 91 | 1009.1 |
| 20260506092519 | 16 | 123 | 3.2 | 9.7 | 0.05 | 2.39 | 2.24 | 91 | 1009.0 |
| 20260506092310 | 16 | 59 | 4.8 | 9.7 | 0.05 | 2.39 | 2.24 | 91 | 1009.1 |
| 20260506092108 | 16 | 47 | 3.2 | 11.3 | 0.05 | 2.41 | 2.24 | 91 | 1009.1 |
| 20260506091908 | 16 | 59 | 3.2 | 11.3 | 0.05 | 2.41 | 2.24 | 91 | 1009.0 |
| 20260506091708 | 16 | 52 | 4.8 | 11.3 | 0.05 | 2.41 | 2.24 | 91 | 1009.0 |
| 20260506091517 | 16 | 89 | 3.2 | 11.3 | 0.05 | 2.41 | 2.24 | 91 | 1009.0 |
| 20260506091304 | 16 | 90 | 4.8 | 11.3 | 0.05 | 2.41 | 2.24 | 91 | 1009.0 |
| 20260506091105 | 16 | 102 | 4.8 | 9.7 | 0.08 | 2.44 | 2.24 | 91 | 1009.0 |
| 20260506090904 | 16 | 124 | 3.2 | 9.7 | 0.08 | 2.44 | 2.24 | 91 | 1009.1 |
| 20260506090703 | 16 | 125 | 3.2 | 14.5 | 0.08 | 2.44 | 2.24 | 91 | 1009.1 |
| 20260506090514 | 15 | 125 | 4.8 | 14.5 | 0.08 | 2.44 | 2.24 | 91 | 1009.0 |
| 20260506090301 | 15 | 113 | 3.2 | 14.5 | 0.08 | 2.44 | 2.24 | 91 | 1009.0 |
| 20260506085903 | 15 | 96 | 4.8 | 16.1 | 0.08 | 2.39 | 2.24 | 91 | 1009.0 |
| 20260506085701 | 15 | 123 | 6.4 | 16.1 | 0.08 | 2.39 | 2.24 | 91 | 1009.0 |
| 20260506085501 | 15 | 144 | 4.8 | 16.1 | 0.08 | 2.39 | 2.24 | 91 | 1009.0 |
| 20260506085305 | 15 | 61 | 8.0 | 16.1 | 0.08 | 2.39 | 2.24 | 91 | 1009.1 |
| 20260506085102 | 15 | 32 | 6.4 | 11.3 | 0.08 | 2.39 | 2.24 | 91 | 1009.1 |
| 20260506084907 | 15 | 51 | 3.2 | 8.0 | 0.10 | 2.39 | 2.24 | 91 | 1009.1 |
| 20260506084705 | 15 | 94 | 3.2 | 8.0 | 0.10 | 2.39 | 2.24 | 91 | 1009.1 |
| 20260506084509 | 15 | 116 | 4.8 | 8.0 | 0.10 | 2.39 | 2.24 | 91 | 1009.1 |
| 20260506084301 | 15 | 106 | 6.4 | 8.0 | 0.10 | 2.39 | 2.24 | 91 | 1009.2 |
| 20260506084053 | 15 | 58 | 1.6 | 4.8 | 0.10 | 2.39 | 2.24 | 91 | 1009.3 |
| 20260506083851 | 15 | 51 | 1.6 | 4.8 | 0.10 | 2.39 | 2.24 | 91 | 1009.2 |
| 20260506083651 | 15 | 76 | 3.2 | 8.0 | 0.08 | 2.39 | 2.21 | 91 | 1009.3 |
| 20260506083450 | 15 | 75 | 3.2 | 11.3 | 0.10 | 2.41 | 2.21 | 91 | 1009.3 |
| 20260506083250 | 15 | 116 | 1.6 | 11.3 | 0.08 | 2.41 | 2.21 | 91 | 1009.3 |
| 20260506083049 | 15 | 116 | 1.6 | 11.3 | 0.08 | 2.41 | 2.21 | 91 | 1009.3 |
| 20260506082852 | 15 | 116 | 3.2 | 11.3 | 0.10 | 2.41 | 2.21 | 91 | 1009.3 |
| 20260506082649 | 15 | 149 | 4.8 | 11.3 | 0.10 | 2.41 | 2.21 | 91 | 1009.2 |
| 20260506082449 | 15 | 127 | 4.8 | 11.3 | 0.13 | 2.41 | 2.21 | 91 | 1009.2 |
| 20260506082248 | 15 | 117 | 3.2 | 14.5 | 0.13 | 2.41 | 2.18 | 91 | 1009.2 |
| 20260506082043 | 15 | 85 | 4.8 | 14.5 | 0.10 | 2.41 | 2.18 | 91 | 1009.3 |
| 20260506081849 | 15 | 79 | 4.8 | 14.5 | 0.10 | 2.41 | 2.18 | 91 | 1009.2 |
| 20260506081642 | 15 | 109 | 6.4 | 14.5 | 0.13 | 2.41 | 2.18 | 91 | 1009.2 |
| 20260506081438 | 15 | 117 | 8.0 | 14.5 | 0.13 | 2.41 | 2.18 | 91 | 1009.2 |
| 20260506081238 | 15 | 111 | 3.2 | 6.4 | 0.13 | 2.41 | 2.16 | 91 | 1009.1 |
| 20260506081038 | 15 | 111 | 3.2 | 6.4 | 0.13 | 2.41 | 2.16 | 91 | 1009.2 |
| 20260506080834 | 15 | 111 | 3.2 | 4.8 | 0.15 | 2.41 | 2.16 | 91 | 1009.1 |
| 20260506080634 | 15 | 111 | 1.6 | 4.8 | 0.15 | 2.41 | 2.16 | 91 | 1009.1 |
| 20260506080433 | 15 | 111 | 1.6 | 4.8 | 0.15 | 2.41 | 2.16 | 91 | 1009.1 |
| 20260506080233 | 15 | 111 | 0.0 | 6.4 | 0.15 | 2.41 | 2.16 | 91 | 1009.0 |
| 20260506080127 | 15 | 111 | 3.2 | 6.4 | 0.15 | 2.41 | 2.16 | 91 | 1009.1 |
| 20260506073419 | 15 | 130 | 1.6 | 6.4 | 0.15 | 2.29 | 2.11 | 91 | 1009.3 |
| 20260506073215 | 15 | 130 | 1.6 | 6.4 | 0.15 | 2.29 | 2.11 | 91 | 1009.3 |
| 20260506073022 | 15 | 130 | 0.0 | 6.4 | 0.15 | 2.29 | 2.11 | 91 | 1009.2 |
| 20260506072811 | 15 | 130 | 1.6 | 6.4 | 0.13 | 2.29 | 2.11 | 91 | 1009.2 |
| 20260506072611 | 15 | 130 | 1.6 | 9.7 | 0.15 | 2.29 | 2.11 | 91 | 1009.2 |
| 20260506072413 | 15 | 133 | 3.2 | 14.5 | 0.13 | 2.29 | 2.08 | 91 | 1009.2 |
| 20260506072212 | 15 | 133 | 4.8 | 14.5 | 0.15 | 2.29 | 2.08 | 91 | 1009.2 |
| 20260506072018 | 15 | 106 | 3.2 | 14.5 | 0.15 | 2.29 | 2.08 | 91 | 1009.3 |
| 20260506071808 | 15 | 125 | 4.8 | 14.5 | 0.15 | 2.29 | 2.06 | 91 | 1009.2 |
| 20260506071610 | 14 | 168 | 6.4 | 14.5 | 0.15 | 2.29 | 2.06 | 91 | 1009.3 |
| 20260506071409 | 14 | 106 | 6.4 | 14.5 | 0.15 | 2.29 | 2.03 | 91 | 1009.3 |
| 20260506071213 | 14 | 96 | 6.4 | 14.5 | 0.15 | 2.29 | 2.03 | 91 | 1009.3 |
| 20260506071022 | 14 | 169 | 4.8 | 14.5 | 0.15 | 2.29 | 2.03 | 91 | 1009.3 |
| 20260506070810 | 14 | 121 | 6.4 | 16.1 | 0.15 | 2.31 | 2.03 | 91 | 1009.3 |
| 20260506070612 | 14 | 123 | 6.4 | 17.7 | 0.18 | 2.31 | 2.03 | 91 | 1009.3 |
| 20260506070409 | 14 | 140 | 8.0 | 17.7 | 0.18 | 2.31 | 2.03 | 91 | 1009.4 |
| 20260506070207 | 14 | 120 | 6.4 | 17.7 | 0.20 | 2.31 | 2.03 | 91 | 1009.4 |
| 20260506062352 | 14 | 138 | 4.8 | 8.0 | 0.33 | 2.29 | 1.93 | 91 | 1009.6 |
| 20260506062149 | 14 | 145 | 3.2 | 8.0 | 0.30 | 2.31 | 1.93 | 91 | 1009.6 |
| 20260506061948 | 14 | 130 | 3.2 | 8.0 | 0.28 | 2.31 | 1.93 | 91 | 1009.7 |
| 20260506061731 | 14 | 114 | 1.6 | 4.8 | 0.28 | 2.36 | 1.91 | 91 | 1009.6 |
| 20260506061531 | 14 | 114 | 0.0 | 4.8 | 0.28 | 2.39 | 1.88 | 91 | 1009.6 |
| 20260506061331 | 14 | 114 | 0.0 | 4.8 | 0.25 | 2.39 | 1.88 | 91 | 1009.5 |
| 20260506061130 | 14 | 114 | 1.6 | 4.8 | 0.25 | 2.44 | 1.85 | 91 | 1009.5 |
| 20260506060930 | 14 | 114 | 1.6 | 4.8 | 0.25 | 2.46 | 1.85 | 91 | 1009.6 |
| 20260506060730 | 14 | 114 | 0.0 | 4.8 | 0.25 | 2.49 | 1.85 | 91 | 1009.6 |
| 20260506060531 | 14 | 114 | 0.0 | 4.8 | 0.23 | 2.51 | 1.83 | 91 | 1009.7 |
| 20260506060336 | 14 | 114 | 1.6 | 4.8 | 0.23 | 2.57 | 1.83 | 91 | 1009.6 |
| 20260506060126 | 14 | 114 | 0.0 | 3.2 | 0.23 | 2.59 | 1.83 | 91 | 1009.6 |
| 20260506051313 | 14 | 138 | 6.4 | 16.1 | 0.36 | 2.49 | 1.63 | 91 | 1009.5 |
| 20260506051109 | 14 | 124 | 6.4 | 16.1 | 0.38 | 2.49 | 1.60 | 91 | 1009.6 |
| 20260506050908 | 14 | 99 | 6.4 | 16.1 | 0.41 | 2.49 | 1.60 | 91 | 1009.8 |
| 20260506050718 | 14 | 103 | 8.0 | 16.1 | 0.43 | 2.49 | 1.60 | 91 | 1009.7 |
| 20260506050519 | 14 | 121 | 9.7 | 17.7 | 0.46 | 2.49 | 1.60 | 91 | 1009.7 |
| 20260506050320 | 14 | 118 | 9.7 | 17.7 | 0.48 | 2.49 | 1.60 | 91 | 1009.7 |
| 20260506050116 | 14 | 125 | 9.7 | 17.7 | 0.51 | 2.49 | 1.60 | 91 | 1009.8 |
| 20260506045107 | 14 | 138 | 8.0 | 11.3 | 0.53 | 1.96 | 1.55 | 91 | 1010.0 |
| 20260506044906 | 14 | 106 | 6.4 | 9.7 | 0.56 | 1.96 | 1.55 | 91 | 1010.0 |
| 20260506044705 | 14 | 125 | 3.2 | 9.7 | 0.56 | 1.96 | 1.55 | 91 | 1010.0 |
| 20260506044516 | 14 | 133 | 4.8 | 9.7 | 0.58 | 1.96 | 1.55 | 91 | 1010.0 |
| 20260506044306 | 14 | 135 | 4.8 | 9.7 | 0.56 | 1.96 | 1.55 | 91 | 1010.0 |
| 20260506044103 | 14 | 99 | 4.8 | 9.7 | 0.56 | 1.96 | 1.52 | 91 | 1009.9 |
| 20260506043901 | 14 | 118 | 6.4 | 9.7 | 0.56 | 1.96 | 1.52 | 91 | 1009.9 |
| 20260506043702 | 14 | 90 | 1.6 | 8.0 | 0.56 | 1.96 | 1.52 | 91 | 1009.9 |
| 20260506043501 | 14 | 93 | 0.0 | 8.0 | 0.56 | 1.96 | 1.52 | 91 | 1009.8 |
| 20260506043302 | 14 | 93 | 0.0 | 8.0 | 0.53 | 1.96 | 1.50 | 91 | 1009.7 |
| 20260506043101 | 14 | 93 | 3.2 | 8.0 | 0.53 | 1.96 | 1.47 | 91 | 1009.4 |
| 20260506042903 | 14 | 42 | 6.4 | 8.0 | 0.51 | 1.96 | 1.47 | 91 | 1009.4 |
| 20260506042700 | 14 | 85 | 4.8 | 8.0 | 0.51 | 1.96 | 1.45 | 91 | 1009.6 |
| 20260506042457 | 14 | 45 | 4.8 | 6.4 | 0.48 | 1.96 | 1.42 | 91 | 1009.7 |
| 20260506042259 | 14 | 78 | 3.2 | 9.7 | 0.43 | 1.96 | 1.40 | 91 | 1009.9 |
| 20260506042057 | 14 | 137 | 0.0 | 9.7 | 0.43 | 1.96 | 1.37 | 90 | 1010.0 |
| 20260506041856 | 14 | 179 | 1.6 | 19.3 | 0.41 | 1.96 | 1.35 | 90 | 1010.1 |
| 20260506041649 | 14 | 179 | 3.2 | 19.3 | 0.36 | 1.96 | 1.30 | 90 | 1010.1 |
| 20260506041448 | 14 | 180 | 4.8 | 19.3 | 0.33 | 1.96 | 1.27 | 91 | 1010.2 |
| 20260506041249 | 14 | 252 | 4.8 | 20.9 | 0.28 | 1.96 | 1.24 | 91 | 1010.3 |
| 20260506041047 | 14 | 162 | 9.7 | 20.9 | 0.25 | 1.96 | 1.22 | 91 | 1010.3 |
| 20260506040843 | 14 | 235 | 8.0 | 20.9 | 0.23 | 1.96 | 1.17 | 91 | 1010.2 |
| 20260506040650 | 14 | 196 | 8.0 | 20.9 | 0.20 | 1.96 | 1.17 | 91 | 1010.2 |
| 20260506040447 | 14 | 244 | 9.7 | 20.9 | 0.18 | 1.96 | 1.14 | 91 | 1010.1 |
| 20260506040247 | 14 | 157 | 8.0 | 20.9 | 0.15 | 1.96 | 1.12 | 91 | 1010.1 |
| 20260506035841 | 14 | 228 | 6.4 | 17.7 | 0.13 | 1.83 | 1.07 | 91 | 1010.0 |
| 20260506035645 | 14 | 128 | 4.8 | 17.7 | 0.10 | 1.83 | 1.07 | 91 | 1010.0 |
| 20260506035441 | 14 | 197 | 6.4 | 19.3 | 0.08 | 1.83 | 1.04 | 91 | 1009.9 |
| 20260506035242 | 14 | 147 | 3.2 | 19.3 | 0.08 | 1.83 | 1.02 | 91 | 1009.9 |
| 20260506035035 | 14 | 258 | 4.8 | 19.3 | 0.08 | 1.83 | 0.99 | 91 | 1009.9 |
| 20260506034831 | 14 | 165 | 4.8 | 19.3 | 0.05 | 1.83 | 0.99 | 91 | 1010.0 |
| 20260506034635 | 14 | 134 | 6.4 | 19.3 | 0.05 | 1.83 | 0.99 | 91 | 1009.9 |
| 20260506034429 | 14 | 135 | 6.4 | 16.1 | 0.05 | 1.83 | 0.99 | 91 | 1010.0 |
| 20260506034227 | 14 | 144 | 4.8 | 19.3 | 0.03 | 1.83 | 0.97 | 91 | 1009.9 |
| 20260506034031 | 14 | 234 | 6.4 | 19.3 | 0.03 | 1.83 | 0.97 | 91 | 1009.9 |
| 20260506033827 | 14 | 128 | 6.4 | 19.3 | 0.05 | 1.83 | 0.97 | 91 | 1009.9 |
| 20260506033632 | 14 | 221 | 6.4 | 19.3 | 0.05 | 1.83 | 0.97 | 91 | 1009.9 |
| 20260506033430 | 14 | 103 | 6.4 | 19.3 | 0.08 | 1.83 | 0.97 | 91 | 1009.8 |
| 20260506033228 | 14 | 148 | 6.4 | 16.1 | 0.08 | 1.83 | 0.97 | 91 | 1009.8 |
| 20260506033026 | 14 | 166 | 4.8 | 16.1 | 0.08 | 1.83 | 0.97 | 91 | 1009.8 |
| 20260506032814 | 14 | 289 | 3.2 | 16.1 | 0.08 | 1.83 | 0.97 | 91 | 1009.7 |
| 20260506032611 | 14 | 140 | 6.4 | 16.1 | 0.10 | 1.83 | 0.97 | 91 | 1009.6 |
| 20260506032413 | 14 | 183 | 6.4 | 16.1 | 0.10 | 1.83 | 0.97 | 91 | 1009.8 |
| 20260506032210 | 14 | 188 | 8.0 | 16.1 | 0.13 | 1.83 | 0.97 | 91 | 1009.7 |
| 20260506032020 | 14 | 217 | 6.4 | 16.1 | 0.15 | 1.83 | 0.97 | 91 | 1009.8 |
| 20260506031811 | 14 | 148 | 6.4 | 16.1 | 0.15 | 1.83 | 0.97 | 91 | 1009.8 |
| 20260506031616 | 14 | 193 | 6.4 | 16.1 | 0.15 | 1.83 | 0.97 | 91 | 1009.7 |
| 20260506031410 | 14 | 206 | 4.8 | 16.1 | 0.15 | 1.83 | 0.97 | 91 | 1009.7 |
| 20260506031208 | 15 | 125 | 4.8 | 11.3 | 0.18 | 1.83 | 0.97 | 91 | 1009.7 |
| 20260506031018 | 15 | 148 | 3.2 | 9.7 | 0.18 | 1.83 | 0.97 | 91 | 1009.7 |
| 20260506030809 | 15 | 142 | 3.2 | 9.7 | 0.20 | 1.83 | 0.97 | 91 | 1009.7 |
| 20260506030617 | 15 | 223 | 4.8 | 9.7 | 0.20 | 1.83 | 0.97 | 91 | 1009.8 |
| 20260506030411 | 15 | 107 | 3.2 | 9.7 | 0.20 | 1.83 | 0.97 | 91 | 1009.8 |
| 20260506030209 | 15 | 120 | 3.2 | 9.7 | 0.20 | 1.83 | 0.97 | 91 | 1009.7 |
| 20260506030040 | 15 | 124 | 3.2 | 6.4 | 0.20 | 1.65 | 0.97 | 91 | 1009.8 |
| 20260506025809 | 15 | 124 | 3.2 | 6.4 | 0.20 | 1.65 | 0.97 | 90 | 1009.8 |
| 20260506025614 | 15 | 124 | 3.2 | 4.8 | 0.20 | 1.65 | 0.97 | 90 | 1009.9 |
| 20260506025410 | 15 | 124 | 3.2 | 4.8 | 0.20 | 1.65 | 0.97 | 90 | 1010.0 |
| 20260506025206 | 15 | 124 | 0.0 | 3.2 | 0.18 | 1.65 | 0.94 | 91 | 1010.0 |
| 20260506025012 | 15 | 124 | 0.0 | 3.2 | 0.20 | 1.65 | 0.94 | 91 | 1010.1 |
| 20260506024803 | 15 | 124 | 1.6 | 3.2 | 0.20 | 1.65 | 0.94 | 91 | 1010.0 |
| 20260506024605 | 15 | 124 | 0.0 | 4.8 | 0.20 | 1.65 | 0.94 | 91 | 1010.1 |
| 20260506024402 | 15 | 124 | 0.0 | 4.8 | 0.23 | 1.65 | 0.94 | 91 | 1010.2 |
| 20260506024202 | 15 | 124 | 1.6 | 4.8 | 0.23 | 1.65 | 0.94 | 91 | 1010.1 |
| 20260506024013 | 15 | 124 | 0.0 | 4.8 | 0.23 | 1.65 | 0.91 | 90 | 1010.1 |
| 20260506023803 | 15 | 124 | 1.6 | 6.4 | 0.23 | 1.65 | 0.89 | 90 | 1010.3 |
| 20260506023601 | 15 | 124 | 0.0 | 6.4 | 0.23 | 1.65 | 0.89 | 90 | 1010.3 |
| 20260506023356 | 15 | 124 | 1.6 | 6.4 | 0.20 | 1.65 | 0.89 | 90 | 1010.2 |
| 20260506023134 | 15 | 125 | 1.6 | 6.4 | 0.23 | 1.65 | 0.89 | 91 | 1010.3 |
| 20260506022933 | 15 | 124 | 1.6 | 6.4 | 0.23 | 1.65 | 0.89 | 91 | 1010.2 |
| 20260506022732 | 15 | 124 | 1.6 | 4.8 | 0.23 | 1.65 | 0.86 | 91 | 1010.1 |
| 20260506022532 | 15 | 124 | 3.2 | 4.8 | 0.23 | 1.65 | 0.86 | 91 | 1010.2 |
| 20260506022332 | 15 | 124 | 1.6 | 3.2 | 0.25 | 1.65 | 0.84 | 91 | 1010.2 |
| 20260506022131 | 15 | 124 | 0.0 | 3.2 | 0.28 | 1.65 | 0.84 | 91 | 1010.3 |
| 20260506021938 | 15 | 124 | 0.0 | 3.2 | 0.28 | 1.65 | 0.81 | 91 | 1010.3 |
| 20260506021729 | 15 | 124 | 0.0 | 3.2 | 0.30 | 1.65 | 0.81 | 91 | 1010.5 |
| 20260506021530 | 15 | 124 | 1.6 | 4.8 | 0.28 | 1.65 | 0.79 | 91 | 1010.7 |
| 20260506021329 | 15 | 124 | 0.0 | 4.8 | 0.30 | 1.65 | 0.79 | 91 | 1010.7 |
| 20260506021130 | 15 | 124 | 0.0 | 4.8 | 0.33 | 1.65 | 0.79 | 91 | 1010.7 |
| 20260506020931 | 15 | 124 | 1.6 | 4.8 | 0.30 | 1.65 | 0.76 | 90 | 1010.8 |
| 20260506020720 | 15 | 124 | 1.6 | 4.8 | 0.33 | 1.65 | 0.76 | 90 | 1010.8 |
| 20260506020522 | 15 | 124 | 1.6 | 9.7 | 0.33 | 1.65 | 0.76 | 90 | 1010.8 |
| 20260506020320 | 15 | 124 | 1.6 | 9.7 | 0.33 | 1.65 | 0.76 | 90 | 1010.8 |
| 20260506020119 | 15 | 124 | 1.6 | 9.7 | 0.33 | 1.65 | 0.76 | 90 | 1010.7 |
| 20260506015919 | 15 | 124 | 3.2 | 9.7 | 0.36 | 1.30 | 0.76 | 91 | 1010.7 |
| 20260506015718 | 15 | 124 | 4.8 | 9.7 | 0.38 | 1.30 | 0.76 | 91 | 1010.7 |
| 20260506015523 | 15 | 56 | 1.6 | 6.4 | 0.41 | 1.30 | 0.76 | 91 | 1010.6 |
| 20260506015317 | 15 | 56 | 0.0 | 8.0 | 0.43 | 1.30 | 0.76 | 91 | 1010.4 |
| 20260506015118 | 15 | 56 | 0.0 | 8.0 | 0.43 | 1.30 | 0.74 | 91 | 1010.4 |
| 20260506014929 | 15 | 56 | 1.6 | 8.0 | 0.46 | 1.30 | 0.74 | 91 | 1010.4 |
| 20260506014722 | 15 | 55 | 3.2 | 8.0 | 0.51 | 1.30 | 0.74 | 91 | 1010.5 |
| 20260506014525 | 15 | 55 | 4.8 | 8.0 | 0.51 | 1.30 | 0.71 | 91 | 1010.5 |
| 20260506014316 | 15 | 45 | 6.4 | 8.0 | 0.51 | 1.30 | 0.71 | 91 | 1010.6 |
| 20260506014115 | 15 | 30 | 3.2 | 8.0 | 0.51 | 1.30 | 0.71 | 91 | 1010.8 |
| 20260506013918 | 15 | 28 | 4.8 | 8.0 | 0.51 | 1.30 | 0.71 | 91 | 1010.9 |
| 20260506013713 | 15 | 7 | 3.2 | 4.8 | 0.53 | 1.30 | 0.69 | 91 | 1011.0 |
| 20260506013523 | 15 | 7 | 1.6 | 4.8 | 0.53 | 1.30 | 0.69 | 91 | 1011.0 |
| 20260506013310 | 15 | 7 | 1.6 | 4.8 | 0.56 | 1.30 | 0.69 | 91 | 1011.1 |
| 20260506013114 | 15 | 7 | 1.6 | 4.8 | 0.53 | 1.30 | 0.66 | 91 | 1011.1 |
| 20260506012915 | 15 | 7 | 1.6 | 4.8 | 0.53 | 1.30 | 0.64 | 91 | 1011.1 |
| 20260506012712 | 15 | 7 | 1.6 | 6.4 | 0.53 | 1.30 | 0.61 | 91 | 1011.1 |
| 20260506012526 | 15 | 7 | 1.6 | 6.4 | 0.51 | 1.30 | 0.61 | 91 | 1011.2 |
| 20260506012308 | 15 | 7 | 0.0 | 6.4 | 0.51 | 1.30 | 0.58 | 91 | 1011.3 |
| 20260506012108 | 15 | 7 | 0.0 | 6.4 | 0.48 | 1.30 | 0.56 | 91 | 1011.3 |
| 20260506011926 | 15 | 7 | 4.8 | 6.4 | 0.46 | 1.30 | 0.51 | 91 | 1011.2 |
| 20260506011710 | 15 | 4 | 3.2 | 6.4 | 0.43 | 1.30 | 0.51 | 91 | 1011.1 |
| 20260506011522 | 15 | 4 | 3.2 | 4.8 | 0.43 | 1.30 | 0.51 | 91 | 1011.2 |
| 20260506011309 | 15 | 4 | 3.2 | 6.4 | 0.41 | 1.30 | 0.48 | 91 | 1011.3 |
| 20260506011109 | 15 | 4 | 0.0 | 6.4 | 0.38 | 1.30 | 0.46 | 91 | 1011.4 |
| 20260506010914 | 15 | 4 | 1.6 | 6.4 | 0.38 | 1.30 | 0.46 | 91 | 1011.4 |
| 20260506010709 | 15 | 4 | 3.2 | 6.4 | 0.36 | 1.30 | 0.43 | 91 | 1011.4 |
| 20260506010522 | 15 | 4 | 4.8 | 6.4 | 0.36 | 1.30 | 0.43 | 91 | 1011.5 |
| 20260506010308 | 15 | 4 | 3.2 | 6.4 | 0.36 | 1.30 | 0.43 | 91 | 1011.5 |
| 20260506010115 | 15 | 4 | 3.2 | 6.4 | 0.36 | 1.30 | 0.43 | 91 | 1011.6 |
| 20260506005917 | 15 | 4 | 1.6 | 6.4 | 0.33 | 0.97 | 0.41 | 91 | 1011.5 |
| 20260506005711 | 15 | 4 | 0.0 | 6.4 | 0.30 | 0.97 | 0.36 | 91 | 1011.6 |
| 20260506005525 | 15 | 4 | 0.0 | 6.4 | 0.28 | 0.97 | 0.33 | 91 | 1011.5 |
| 20260506005308 | 15 | 4 | 0.0 | 6.4 | 0.25 | 0.97 | 0.33 | 91 | 1011.5 |
| 20260506005109 | 15 | 4 | 4.8 | 6.4 | 0.23 | 0.97 | 0.30 | 91 | 1011.4 |
| 20260506004925 | 15 | 4 | 3.2 | 6.4 | 0.23 | 0.97 | 0.25 | 91 | 1011.4 |
| 20260506004709 | 15 | 4 | 3.2 | 6.4 | 0.18 | 0.97 | 0.23 | 91 | 1011.4 |
| 20260506004515 | 15 | 4 | 1.6 | 6.4 | 0.18 | 0.97 | 0.23 | 91 | 1011.3 |
| 20260506004309 | 15 | 4 | 1.6 | 6.4 | 0.15 | 0.97 | 0.20 | 91 | 1011.4 |
| 20260506004108 | 15 | 4 | 3.2 | 6.4 | 0.15 | 0.97 | 0.20 | 91 | 1011.3 |
| 20260506003914 | 15 | 4 | 3.2 | 4.8 | 0.15 | 0.97 | 0.15 | 91 | 1011.2 |
| 20260506003710 | 15 | 4 | 3.2 | 4.8 | 0.15 | 0.97 | 0.15 | 91 | 1011.1 |
| 20260506003520 | 15 | 4 | 1.6 | 4.8 | 0.13 | 0.97 | 0.15 | 91 | 1011.1 |
| 20260506003309 | 15 | 4 | 3.2 | 4.8 | 0.10 | 0.97 | 0.13 | 91 | 1011.0 |
| 20260506003110 | 15 | 4 | 1.6 | 4.8 | 0.10 | 0.97 | 0.13 | 91 | 1011.0 |
| 20260506002912 | 15 | 4 | 1.6 | 3.2 | 0.10 | 0.97 | 0.10 | 91 | 1010.9 |
| 20260506002707 | 15 | 4 | 1.6 | 3.2 | 0.10 | 0.97 | 0.10 | 91 | 1011.0 |
| 20260506002515 | 15 | 4 | 1.6 | 6.4 | 0.10 | 0.97 | 0.10 | 91 | 1011.0 |
| 20260506002309 | 15 | 4 | 0.0 | 6.4 | 0.08 | 0.97 | 0.08 | 91 | 1011.0 |
| 20260506002117 | 15 | 4 | 0.0 | 6.4 | 0.08 | 0.97 | 0.08 | 91 | 1010.9 |
| 20260506001912 | 15 | 4 | 3.2 | 6.4 | 0.08 | 0.97 | 0.08 | 91 | 1010.8 |
| 20260506001714 | 15 | 4 | 3.2 | 6.4 | 0.08 | 0.97 | 0.08 | 91 | 1010.9 |
| 20260506001515 | 15 | 3 | 1.6 | 6.4 | 0.08 | 0.97 | 0.08 | 91 | 1010.8 |
| 20260506001108 | 15 | 3 | 1.6 | 6.4 | 0.08 | 0.97 | 0.08 | 91 | 1010.9 |
| 20260506000905 | 15 | 3 | 1.6 | 6.4 | 0.08 | 0.97 | 0.08 | 91 | 1010.9 |
| 20260506000704 | 15 | 3 | 3.2 | 6.4 | 0.08 | 0.97 | 0.08 | 91 | 1010.9 |
| 20260506000501 | 15 | 0 | 3.2 | 6.4 | 0.08 | 0.97 | 0.08 | 91 | 1011.0 |
| 20260506000302 | 15 | 0 | 3.2 | 6.4 | 0.08 | 0.97 | 0.08 | 91 | 1011.0 |
| 20260505235900 | 15 | 0 | 3.2 | 6.4 | 0.08 | 0.89 | 0.08 | 91 | 1011.1 |
| 20260505235701 | 15 | 0 | 4.8 | 6.4 | 0.08 | 0.89 | 0.08 | 91 | 1011.3 |
| 20260505235459 | 15 | 0 | 1.6 | 6.4 | 0.08 | 0.89 | 0.08 | 91 | 1011.4 |
| 20260505235305 | 15 | 0 | 3.2 | 6.4 | 0.08 | 0.89 | 0.08 | 91 | 1011.4 |
| 20260505235103 | 15 | 0 | 1.6 | 3.2 | 0.08 | 0.89 | 0.08 | 91 | 1011.5 |
| 20260505234858 | 15 | 0 | 0.0 | 4.8 | 0.05 | 0.89 | 0.05 | 91 | 1011.5 |
| 20260505234657 | 15 | 0 | 0.0 | 4.8 | 0.05 | 0.89 | 0.05 | 91 | 1011.6 |
| 20260505234457 | 15 | 0 | 0.0 | 4.8 | 0.05 | 0.89 | 0.05 | 91 | 1011.6 |
| 20260505234256 | 15 | 0 | 0.0 | 4.8 | 0.05 | 0.89 | 0.05 | 91 | 1011.5 |
| 20260505234059 | 15 | 0 | 3.2 | 4.8 | 0.05 | 0.89 | 0.03 | 91 | 1011.5 |
| 20260505233856 | 15 | 0 | 1.6 | 4.8 | 0.03 | 0.89 | 0.03 | 91 | 1011.6 |
| 20260505233657 | 15 | 0 | 0.0 | 3.2 | 0.03 | 0.89 | 0.03 | 91 | 1011.6 |
| 20260505233456 | 15 | 0 | 0.0 | 3.2 | 0.03 | 0.89 | 0.03 | 90 | 1011.6 |
| 20260505233300 | 15 | 0 | 1.6 | 4.8 | 0.03 | 0.89 | 0.03 | 90 | 1011.6 |
| 20260505233056 | 15 | 0 | 0.0 | 4.8 | 0.03 | 0.89 | 0.00 | 90 | 1011.5 |
| 20260505232854 | 15 | 0 | 0.0 | 4.8 | 0.00 | 0.89 | 0.00 | 90 | 1011.5 |
| 20260505232650 | 15 | 0 | 1.6 | 4.8 | 0.00 | 0.89 | 0.00 | 90 | 1011.5 |
| 20260505232453 | 15 | 0 | 3.2 | 4.8 | 0.00 | 0.89 | 0.00 | 90 | 1011.5 |
| 20260505232251 | 15 | 0 | 1.6 | 3.2 | 0.00 | 0.89 | 0.00 | 90 | 1011.5 |
| 20260505232050 | 15 | 0 | 0.0 | 3.2 | 0.00 | 0.89 | 0.00 | 90 | 1011.5 |
| 20260505231849 | 15 | 0 | 0.0 | 3.2 | 0.00 | 0.89 | 0.00 | 90 | 1011.6 |
| 20260505231650 | 15 | 0 | 0.0 | 3.2 | 0.00 | 0.89 | 0.00 | 90 | 1011.5 |
| 20260505231447 | 15 | 0 | 1.6 | 3.2 | 0.00 | 0.89 | 0.00 | 90 | 1011.6 |
| 20260505231246 | 15 | 0 | 1.6 | 3.2 | 0.00 | 0.89 | 0.00 | 90 | 1011.5 |
| 20260505231045 | 15 | 0 | 0.0 | 1.6 | 0.00 | 0.89 | 0.00 | 90 | 1011.6 |
| 20260505230845 | 15 | 0 | 0.0 | 1.6 | 0.00 | 0.89 | 0.00 | 90 | 1011.6 |
| 20260505230644 | 15 | 0 | 0.0 | 1.6 | 0.00 | 0.89 | 0.00 | 90 | 1011.6 |
| 20260505230444 | 15 | 0 | 0.0 | 3.2 | 0.00 | 0.89 | 0.00 | 90 | 1011.6 |
| 20260505230243 | 15 | 0 | 0.0 | 3.2 | 0.00 | 0.89 | 0.00 | 90 | 1011.6 |
| 20260505230046 | 15 | 0 | 0.0 | 3.2 | 0.00 | 0.89 | 0.00 | 90 | 1011.5 |
| 20260505225842 | 15 | 0 | 0.0 | 3.2 | 0.00 | 0.89 | 0.00 | 90 | 1011.5 |
| 20260505225640 | 15 | 0 | 1.6 | 3.2 | 0.00 | 0.89 | 0.00 | 90 | 1011.6 |
| 20260505225439 | 15 | 0 | 1.6 | 3.2 | 0.00 | 0.89 | 0.00 | 90 | 1011.6 |
| 20260505225238 | 15 | 0 | 0.0 | 3.2 | 0.00 | 0.89 | 0.00 | 90 | 1011.7 |
| 20260505225038 | 15 | 0 | 0.0 | 3.2 | 0.00 | 0.89 | 0.00 | 90 | 1011.7 |
| 20260505224833 | 15 | 0 | 0.0 | 4.8 | 0.00 | 0.89 | 0.00 | 90 | 1011.7 |
| 20260505224634 | 15 | 0 | 1.6 | 4.8 | 0.00 | 0.89 | 0.00 | 90 | 1011.6 |
| 20260505224433 | 15 | 0 | 0.0 | 4.8 | 0.00 | 0.89 | 0.00 | 90 | 1011.7 |
| 20260505224231 | 15 | 0 | 0.0 | 4.8 | 0.00 | 0.89 | 0.00 | 90 | 1011.7 |
| 20260505224034 | 15 | 0 | 1.6 | 4.8 | 0.00 | 0.89 | 0.00 | 90 | 1011.7 |
| 20260505223834 | 15 | 0 | 1.6 | 3.2 | 0.00 | 0.89 | 0.00 | 90 | 1011.8 |
| 20260505223635 | 15 | 0 | 0.0 | 3.2 | 0.00 | 0.89 | 0.00 | 90 | 1011.8 |
| 20260505223432 | 15 | 0 | 0.0 | 1.6 | 0.00 | 0.89 | 0.00 | 90 | 1011.8 |
| 20260505223231 | 15 | 0 | 0.0 | 1.6 | 0.00 | 0.89 | 0.00 | 90 | 1011.8 |
| 20260505223033 | 15 | 0 | 0.0 | 1.6 | 0.00 | 0.89 | 0.00 | 90 | 1011.8 |
| 20260505222829 | 15 | 0 | 0.0 | 1.6 | 0.00 | 0.89 | 0.00 | 90 | 1011.8 |
| 20260505222629 | 15 | 0 | 0.0 | 1.6 | 0.00 | 0.89 | 0.00 | 90 | 1011.8 |
| 20260505222428 | 15 | 0 | 1.6 | 1.6 | 0.00 | 0.89 | 0.00 | 90 | 1011.8 |
| 20260505222227 | 15 | 0 | 0.0 | 1.6 | 0.00 | 0.89 | 0.00 | 90 | 1012.0 |
| 20260505222028 | 15 | 0 | 0.0 | 1.6 | 0.00 | 0.89 | 0.00 | 90 | 1012.0 |
| 20260505221826 | 15 | 0 | 0.0 | 1.6 | 0.00 | 0.89 | 0.00 | 90 | 1012.0 |
| 20260505221629 | 15 | 0 | 0.0 | 1.6 | 0.00 | 0.89 | 0.00 | 90 | 1012.0 |
| 20260505221425 | 15 | 0 | 0.0 | 1.6 | 0.00 | 0.89 | 0.00 | 90 | 1012.1 |
| 20260505221225 | 15 | 0 | 0.0 | 1.6 | 0.00 | 0.89 | 0.00 | 90 | 1012.1 |
| 20260505221029 | 15 | 0 | 0.0 | 3.2 | 0.00 | 0.89 | 0.00 | 90 | 1012.2 |
| 20260505220823 | 15 | 0 | 0.0 | 3.2 | 0.00 | 0.89 | 0.00 | 90 | 1012.1 |
| 20260505220627 | 15 | 0 | 0.0 | 3.2 | 0.00 | 0.89 | 0.00 | 90 | 1012.1 |
| 20260505220423 | 15 | 0 | 0.0 | 3.2 | 0.00 | 0.89 | 0.00 | 90 | 1012.0 |
| 20260505220222 | 15 | 0 | 1.6 | 3.2 | 0.00 | 0.89 | 0.00 | 90 | 1012.0 |
| 20260505220049 | 15 | 0 | 1.6 | 3.2 | 0.00 | 0.89 | 0.00 | 90 | 1012.0 |
| 20260505215828 | 15 | 0 | 0.0 | 3.2 | 0.00 | 0.89 | 0.89 | 90 | 1012.1 |
| 20260505215618 | 15 | 0 | 0.0 | 3.2 | 0.00 | 0.89 | 0.89 | 90 | 1012.2 |
| 20260505215418 | 15 | 0 | 1.6 | 3.2 | 0.00 | 0.89 | 0.89 | 90 | 1012.2 |
| 20260505215221 | 15 | 0 | 1.6 | 3.2 | 0.00 | 0.89 | 0.89 | 90 | 1012.2 |
| 20260505215035 | 15 | 0 | 0.0 | 3.2 | 0.00 | 0.89 | 0.89 | 90 | 1012.3 |
| 20260505214829 | 15 | 0 | 1.6 | 3.2 | 0.00 | 0.89 | 0.89 | 90 | 1012.3 |
| 20260505214618 | 15 | 0 | 1.6 | 3.2 | 0.00 | 0.89 | 0.89 | 90 | 1012.3 |
| 20260505214418 | 15 | 0 | 1.6 | 3.2 | 0.00 | 0.89 | 0.89 | 90 | 1012.3 |
| 20260505214218 | 15 | 0 | 0.0 | 4.8 | 0.00 | 0.89 | 0.89 | 90 | 1012.4 |
| 20260505214029 | 15 | 0 | 1.6 | 4.8 | 0.00 | 0.89 | 0.89 | 90 | 1012.3 |
| 20260505213824 | 15 | 0 | 1.6 | 4.8 | 0.00 | 0.89 | 0.89 | 90 | 1012.4 |
| 20260505213614 | 15 | 0 | 1.6 | 4.8 | 0.00 | 0.89 | 0.89 | 90 | 1012.4 |
| 20260505213416 | 15 | 0 | 3.2 | 4.8 | 0.00 | 0.89 | 0.89 | 90 | 1012.3 |
| 20260505213214 | 15 | 0 | 1.6 | 3.2 | 0.00 | 0.89 | 0.89 | 90 | 1012.4 |
| 20260505213023 | 15 | 0 | 0.0 | 3.2 | 0.00 | 0.89 | 0.89 | 90 | 1012.4 |
| 20260505212815 | 15 | 0 | 0.0 | 6.4 | 0.00 | 0.89 | 0.89 | 90 | 1012.5 |
| 20260505212612 | 15 | 0 | 0.0 | 6.4 | 0.00 | 0.89 | 0.89 | 90 | 1012.4 |
| 20260505212414 | 15 | 0 | 1.6 | 8.0 | 0.00 | 0.89 | 0.89 | 90 | 1012.5 |
| 20260505212212 | 15 | 0 | 0.0 | 8.0 | 0.00 | 0.89 | 0.89 | 90 | 1012.6 |
| 20260505212021 | 15 | 0 | 3.2 | 8.0 | 0.00 | 0.89 | 0.89 | 89 | 1012.5 |
| 20260505211815 | 16 | 0 | 4.8 | 8.0 | 0.00 | 0.89 | 0.89 | 89 | 1012.6 |
| 20260505211607 | 16 | 0 | 6.4 | 8.0 | 0.00 | 0.89 | 0.89 | 89 | 1012.6 |
| 20260505211408 | 16 | 0 | 4.8 | 6.4 | 0.00 | 0.89 | 0.89 | 89 | 1012.4 |
| 20260505211204 | 16 | 0 | 6.4 | 6.4 | 0.00 | 0.89 | 0.89 | 89 | 1012.5 |
| 20260505211014 | 16 | 0 | 4.8 | 8.0 | 0.00 | 0.89 | 0.89 | 89 | 1012.4 |
| 20260505210803 | 16 | 0 | 3.2 | 8.0 | 0.00 | 0.89 | 0.89 | 89 | 1012.4 |
| 20260505210601 | 16 | 0 | 3.2 | 8.0 | 0.00 | 0.89 | 0.89 | 89 | 1012.4 |
| 20260505210407 | 16 | 0 | 4.8 | 8.0 | 0.00 | 0.89 | 0.89 | 89 | 1012.5 |
| 20260505210201 | 16 | 0 | 6.4 | 8.0 | 0.00 | 0.89 | 0.89 | 89 | 1012.4 |
| 20260505210030 | 16 | 0 | 6.4 | 8.0 | 0.00 | 0.89 | 0.89 | 89 | 1012.5 |
| 20260505205800 | 16 | 0 | 1.6 | 4.8 | 0.00 | 0.89 | 0.89 | 89 | 1012.5 |
| 20260505205601 | 16 | 0 | 0.0 | 3.2 | 0.00 | 0.89 | 0.89 | 89 | 1012.4 |
| 20260505205358 | 16 | 0 | 0.0 | 3.2 | 0.00 | 0.89 | 0.89 | 89 | 1012.3 |
| 20260505205158 | 16 | 0 | 0.0 | 3.2 | 0.00 | 0.89 | 0.89 | 89 | 1012.4 |
| 20260505204956 | 16 | 0 | 0.0 | 4.8 | 0.00 | 0.89 | 0.89 | 89 | 1012.3 |
| 20260505204756 | 16 | 0 | 0.0 | 4.8 | 0.00 | 0.89 | 0.89 | 89 | 1012.4 |
| 20260505204557 | 16 | 0 | 1.6 | 4.8 | 0.00 | 0.89 | 0.89 | 89 | 1012.4 |
| 20260505204354 | 16 | 0 | 0.0 | 4.8 | 0.00 | 0.89 | 0.89 | 89 | 1012.4 |
| 20260505204154 | 16 | 0 | 1.6 | 4.8 | 0.00 | 0.89 | 0.89 | 89 | 1012.4 |
| 20260505203953 | 16 | 0 | 3.2 | 6.4 | 0.00 | 0.89 | 0.89 | 89 | 1012.4 |
| 20260505203754 | 16 | 0 | 1.6 | 6.4 | 0.00 | 0.89 | 0.89 | 89 | 1012.3 |
| 20260505203553 | 16 | 0 | 3.2 | 6.4 | 0.00 | 0.89 | 0.89 | 89 | 1012.3 |
| 20260505203354 | 16 | 0 | 3.2 | 6.4 | 0.00 | 0.89 | 0.89 | 89 | 1012.3 |
| 20260505203152 | 16 | 0 | 3.2 | 6.4 | 0.00 | 0.89 | 0.89 | 89 | 1012.4 |
| 20260505202951 | 16 | 0 | 0.0 | 6.4 | 0.00 | 0.89 | 0.89 | 89 | 1012.3 |
| 20260505202751 | 16 | 0 | 4.8 | 6.4 | 0.00 | 0.89 | 0.89 | 88 | 1012.4 |
| 20260505202551 | 16 | 0 | 4.8 | 6.4 | 0.00 | 0.89 | 0.89 | 88 | 1012.4 |
| 20260505202351 | 16 | 0 | 3.2 | 9.7 | 0.00 | 0.89 | 0.89 | 88 | 1012.4 |
| 20260505202151 | 16 | 0 | 4.8 | 11.3 | 0.00 | 0.89 | 0.89 | 88 | 1012.4 |
| 20260505201949 | 16 | 0 | 4.8 | 11.3 | 0.00 | 0.89 | 0.89 | 88 | 1012.4 |
| 20260505201745 | 16 | 0 | 4.8 | 11.3 | 0.00 | 0.89 | 0.89 | 88 | 1012.4 |
| 20260505201543 | 16 | 0 | 6.4 | 11.3 | 0.00 | 0.89 | 0.89 | 88 | 1012.3 |
| 20260505201346 | 17 | 0 | 8.0 | 11.3 | 0.00 | 0.89 | 0.89 | 88 | 1012.2 |
| 20260505201141 | 17 | 0 | 4.8 | 9.7 | 0.00 | 0.89 | 0.89 | 88 | 1012.2 |
| 20260505200939 | 17 | 0 | 4.8 | 8.0 | 0.00 | 0.89 | 0.89 | 88 | 1012.2 |
| 20260505200742 | 17 | 0 | 4.8 | 8.0 | 0.00 | 0.89 | 0.89 | 88 | 1012.2 |
| 20260505200543 | 17 | 0 | 0.0 | 8.0 | 0.00 | 0.89 | 0.89 | 88 | 1012.2 |
| 20260505200342 | 17 | 0 | 3.2 | 8.0 | 0.00 | 0.89 | 0.89 | 88 | 1012.2 |
| 20260505200138 | 17 | 0 | 3.2 | 8.0 | 0.00 | 0.89 | 0.89 | 88 | 1012.2 |
| 20260505195937 | 17 | 0 | 6.4 | 8.0 | 0.00 | 0.89 | 0.89 | 88 | 1012.3 |
| 20260505195734 | 17 | 0 | 4.8 | 8.0 | 0.00 | 0.89 | 0.89 | 88 | 1012.3 |
| 20260505195534 | 17 | 0 | 3.2 | 8.0 | 0.00 | 0.89 | 0.89 | 88 | 1012.3 |
| 20260505195331 | 17 | 0 | 4.8 | 8.0 | 0.00 | 0.89 | 0.89 | 88 | 1012.3 |
| 20260505195131 | 17 | 0 | 4.8 | 8.0 | 0.00 | 0.89 | 0.89 | 89 | 1012.2 |
| 20260505194929 | 17 | 0 | 6.4 | 8.0 | 0.00 | 0.89 | 0.89 | 88 | 1012.3 |
| 20260505194729 | 17 | 0 | 3.2 | 8.0 | 0.00 | 0.89 | 0.89 | 87 | 1012.2 |
| 20260505194529 | 17 | 0 | 4.8 | 8.0 | 0.00 | 0.89 | 0.89 | 87 | 1012.2 |
| 20260505194335 | 17 | 0 | 3.2 | 6.4 | 0.00 | 0.89 | 0.89 | 87 | 1012.1 |
| 20260505194128 | 17 | 0 | 3.2 | 8.0 | 0.00 | 0.89 | 0.89 | 87 | 1012.1 |
| 20260505193928 | 17 | 0 | 3.2 | 8.0 | 0.00 | 0.89 | 0.89 | 87 | 1012.1 |
| 20260505193727 | 17 | 0 | 3.2 | 8.0 | 0.00 | 0.89 | 0.89 | 87 | 1012.0 |
| 20260505193527 | 17 | 0 | 3.2 | 8.0 | 0.00 | 0.89 | 0.89 | 87 | 1012.0 |
| 20260505193326 | 17 | 0 | 6.4 | 8.0 | 0.00 | 0.89 | 0.89 | 87 | 1011.9 |
| 20260505193126 | 17 | 0 | 6.4 | 8.0 | 0.00 | 0.89 | 0.89 | 86 | 1011.8 |
| 20260505192923 | 17 | 0 | 3.2 | 8.0 | 0.00 | 0.89 | 0.89 | 86 | 1011.9 |
| 20260505192722 | 17 | 0 | 3.2 | 8.0 | 0.00 | 0.89 | 0.89 | 86 | 1011.8 |
| 20260505192521 | 18 | 0 | 3.2 | 8.0 | 0.00 | 0.89 | 0.89 | 86 | 1011.7 |
| 20260505192320 | 18 | 0 | 6.4 | 8.0 | 0.00 | 0.89 | 0.89 | 86 | 1011.8 |
| 20260505192117 | 18 | 0 | 3.2 | 8.0 | 0.00 | 0.89 | 0.89 | 85 | 1011.8 |
| 20260505191916 | 18 | 0 | 3.2 | 8.0 | 0.00 | 0.89 | 0.89 | 85 | 1011.8 |
| 20260505191716 | 18 | 0 | 4.8 | 8.0 | 0.00 | 0.89 | 0.89 | 85 | 1011.7 |
| 20260505191525 | 18 | 0 | 6.4 | 11.3 | 0.00 | 0.89 | 0.89 | 85 | 1011.7 |
| 20260505191318 | 18 | 0 | 3.2 | 11.3 | 0.00 | 0.89 | 0.89 | 85 | 1011.8 |
| 20260505191115 | 18 | 0 | 1.6 | 11.3 | 0.00 | 0.89 | 0.89 | 84 | 1011.7 |
| 20260505190914 | 18 | 0 | 1.6 | 11.3 | 0.00 | 0.89 | 0.89 | 84 | 1011.7 |
| 20260505190710 | 18 | 0 | 6.4 | 11.3 | 0.00 | 0.89 | 0.89 | 84 | 1011.6 |
| 20260505190521 | 18 | 4 | 4.8 | 11.3 | 0.00 | 0.89 | 0.89 | 84 | 1011.7 |
| 20260505190311 | 18 | 0 | 3.2 | 4.8 | 0.00 | 0.89 | 0.89 | 84 | 1011.6 |
| 20260505190109 | 18 | 0 | 0.0 | 4.8 | 0.00 | 0.89 | 0.89 | 84 | 1011.6 |
| 20260505185903 | 18 | 0 | 1.6 | 4.8 | 0.00 | 0.89 | 0.89 | 84 | 1011.6 |